Weather History for KPHL - April, 2014

Change the Weather History Date:

Saturday, April 12, 2014

  Actual Average Record
Temperature  
Mean Temperature 64 °F 53 °F  
Max Temperature 73 °F 63 °F 92 °F (1977)
Min Temperature 54 °F 43 °F 18 °F (1874)
Degree Days  
Heating Degree Days 1 13  
Month to date heating degree days 140 172  
Since 1 July heating degree days 4597 4319  
Cooling Degree Days 0 0  
Month to date cooling degree days 1 0  
Year to date cooling degree days 1 1  
Growing Degree Days 14 (Base 50)    
Moisture  
Dew Point 39 °F    
Average Humidity 48    
Maximum Humidity 77    
Minimum Humidity 19    
Precipitation  
Precipitation 0.00 in 0.12 in 1.83 in (1933)
Month to date precipitation 0.62 1.51  
Year to date precipitation 13.52 10.98  
Snow  
Snow 0.00 in 0.00 in 1.00 in (1928)
Month to date snowfall 0.0 0.3  
Since 1 July snowfall 68.0 22.2  
Snow Depth 0.00 in    
Sea Level Pressure  
Sea Level Pressure 30.18 in    
Wind  
Wind Speed 7 mph (WSW)    
Max Wind Speed 17 mph    
Max Gust Speed 20 mph    
Visibility 10 miles    
Events      
T = Trace of Precipitation, MM = Missing Value Source: NWS Daily Summary

Daily Weather History Graph

Daily Weather History Graph

Search for Another Location

Airport or City:

Trip Planner

Search our weather history database for the weather conditions in past years. The results will help you decide how hot, cold, wet, or windy it might be!

Date:

Astronomy

Apr. 12, 2014 Rise Set
Actual Time 6:27 AM EDT 7:36 PM EDT
Civil Twilight 6:00 AM EDT 8:04 PM EDT
Nautical Twilight 5:26 AM EDT 8:37 PM EDT
Astronomical Twilight 4:52 AM EDT 9:12 PM EDT
Moon 5:12 PM EDT (4/12) 4:53 AM EDT (4/12)
Length of Visible Light 14h 04m
Length of Day
13h 08m
Waxing Gibbous, 93% of the Moon is Illuminated
Apr 12
Waxing Gibbous
Apr 15
Full
Apr 22
Last Quarter
Apr 29
New
May 6
First Quarter

Hourly Weather History & Observations

Time (EDT) Temp. Dew Point Humidity Pressure Visibility Wind Dir Wind Speed Gust Speed Precip Events Conditions
12:54 AM 60.1 °F 51.1 °F 72% 30.04 in 10.0 mi West 4.6 mph - N/A   Mostly Cloudy
1:54 AM 59.0 °F 50.0 °F 72% 30.05 in 10.0 mi WSW 4.6 mph - N/A   Mostly Cloudy
2:54 AM 57.9 °F 50.0 °F 75% 30.07 in 10.0 mi West 6.9 mph - N/A   Mostly Cloudy
3:54 AM 57.9 °F 50.0 °F 75% 30.10 in 10.0 mi NW 4.6 mph - N/A   Scattered Clouds
4:54 AM 57.0 °F 48.9 °F 74% 30.13 in 10.0 mi NW 4.6 mph - N/A   Mostly Cloudy
5:54 AM 55.0 °F 48.0 °F 77% 30.15 in 10.0 mi NW 5.8 mph - N/A   Partly Cloudy
6:10 AM 55.0 °F 48.0 °F 77% 30.16 in 9.0 mi NW 5.8 mph - N/A   Partly Cloudy
6:54 AM 54.0 °F 46.9 °F 77% 30.18 in 7.0 mi NNW 6.9 mph - N/A   Scattered Clouds
7:41 AM 55.0 °F 46.9 °F 74% 30.22 in 10.0 mi NNW 5.8 mph - N/A   Scattered Clouds
7:54 AM 55.9 °F 46.0 °F 69% 30.22 in 10.0 mi NNW 8.1 mph - N/A   Scattered Clouds
8:54 AM 59.0 °F 44.1 °F 58% 30.23 in 10.0 mi North 8.1 mph - N/A   Scattered Clouds
9:54 AM 62.1 °F 41.0 °F 46% 30.25 in 10.0 mi ESE 6.9 mph - N/A   Scattered Clouds
10:54 AM 64.0 °F 39.0 °F 40% 30.25 in 10.0 mi SE 4.6 mph - N/A   Scattered Clouds
11:54 AM 68.0 °F 36.0 °F 31% 30.26 in 10.0 mi Variable 4.6 mph - N/A   Scattered Clouds
12:54 PM 68.0 °F 34.0 °F 28% 30.24 in 10.0 mi South 6.9 mph - N/A   Scattered Clouds
1:54 PM 70.0 °F 30.9 °F 24% 30.22 in 10.0 mi SSW 9.2 mph - N/A   Scattered Clouds
2:54 PM 72.0 °F 30.9 °F 22% 30.19 in 10.0 mi South 4.6 mph - N/A   Mostly Cloudy
3:54 PM 72.0 °F 30.9 °F 22% 30.17 in 10.0 mi Variable 6.9 mph - N/A   Scattered Clouds
4:54 PM 72.0 °F 30.0 °F 21% 30.16 in 10.0 mi SW 5.8 mph - N/A   Partly Cloudy
5:54 PM 72.0 °F 26.1 °F 18% 30.17 in 10.0 mi SW 9.2 mph - N/A   Partly Cloudy
6:54 PM 71.1 °F 27.0 °F 19% 30.18 in 10.0 mi WSW 8.1 mph - N/A   Partly Cloudy
7:54 PM 64.9 °F 33.1 °F 31% 30.20 in 10.0 mi South 13.8 mph - N/A   Scattered Clouds
8:54 PM 62.1 °F 30.9 °F 31% 30.20 in 10.0 mi South 10.4 mph - N/A   Mostly Cloudy
9:54 PM 59.0 °F 30.9 °F 35% 30.21 in 10.0 mi South 6.9 mph - N/A   Mostly Cloudy
10:54 PM 57.9 °F 33.1 °F 39% 30.21 in 10.0 mi Calm Calm - N/A   Mostly Cloudy
11:54 PM 55.9 °F 37.9 °F 51% 30.21 in 10.0 mi SSW 6.9 mph - N/A   Mostly Cloudy